Location: Atbuku
(36.4936°N, 30.4362°E)
Time: 20:29:24
(UTC+00:00)

IRS-P3 - Pass Details

Date: 15 March 2026
Orbit: 810 x 816 km, 99.0° (Epoch: 11 April)

Event Time Altitude Azimuth Distance (km) Brightness Sun altitude
Rises 16:45:50 0° 182° (S) 3,325 7.3 -8.9°
Reaches altitude 10° 16:48:16 10° 189° (S) 2,398 6.6 -9.4°
Maximum altitude 16:53:18 44° 260° (W) 1,119 5.5 -10.4°
Drops below altitude 10° 16:58:23 10° 332° (NNW) 2,411 7.1 -11.4°
Sets 17:00:51 0° 339° (NNW) 3,347 7.7 -11.9°
